Location: Newark
(13.6797°N, 8.5297°E)
Time: 14:58:36
(UTC+00:00)

A-11 Canister half - Pass Details

Date: 20 January 2020
Orbit: 1517 x 1683 km, 47.2° (Epoch: 22 February)

Event Time Altitude Azimuth Distance (km) Brightness Sun altitude
Rises 00:31:25 0° 267° (W) 4,737 - -75.3°
Reaches altitude 10° 00:35:53 10° 285° (WNW) 3,725 - -74.4°
Maximum altitude 00:41:49 18° 325° (NW) 3,095 - -73.1°
Drops below altitude 10° 00:47:43 10° 5° (N) 3,677 - -71.8°
Sets 00:52:09 0° 24° (NNE) 4,653 - -70.8°
